Theta_e
305 299 296 300 302 303 302 301 299 303 306 303 302 302 306 309 309 312 321 322 330 330 329 330 334 336 339 331 341 346 342 344 346 341 335 333 330 329 330 326 329 327 321 318
301 298 304 307 307 305 303 300 298 304 308 304 303 303 306 308 309 312 326 323 324 327 329 328 330 329 328 330 340 340 340 339 337 336 333 334 332 334 331 328 325 320 318 316
298 303 309 307 305 304 301 300 300 300 304 303 303 300 303 308 308 324 328 327 324 322 326 327 326 323 327 331 337 335 336 335 335 335 333 334 332 332 329 325 320 320 317 314
301 307 307 305 304 305 298 305 305 303 298 292 301 291 299 304 305 315 321 325 322 322 323 328 333 330 327 333 335 330 329 329 329 331 331 327 327 323 323 319 319 317 315 314
301 303 303 303 305 306 302 307 303 304 300 294 298 292 297 303 303 315 320 325 325 328 330 329 328 330 330 329 327 325 325 325 323 322 322 320 317 316 314 313 312 314 314 314
304 309 307 306 309 308 309 305 301 301 297 290 295 293 296 298 307 314 317 323 322 322 323 323 325 326 325 325 323 322 321 320 320 318 317 314 312 312 310 309 307 307 309 309
303 304 307 309 304 305 303 294 290 289 289 289 298 295 299 307 316 316 315 318 319 320 320 320 321 322 322 320 320 321 319 317 316 315 313 312 312 309 308 307 306 305 305 306
295 295 304 308 303 300 299 297 291 286 288 292 301 295 298 317 319 318 318 318 318 318 318 319 320 321 321 320 319 319 317 315 314 312 310 311 309 308 307 308 305 306 304 304
295 297 307 308 307 304 299 296 301 295 295 292 297 304 311 317 316 316 316 317 316 317 317 318 319 320 319 318 318 316 314 312 311 312 311 309 308 308 306 306 306 305 305 307
301 295 305 307 307 305 302 305 295 294 287 286 294 300 301 309 312 314 314 314 315 317 317 319 319 318 317 316 315 314 313 312 310 308 308 308 306 306 306 305 304 304 304 305
303 298 300 304 301 300 298 296 298 298 295 289 289 294 306 311 313 313 314 315 316 316 318 318 318 317 315 314 313 312 310 309 308 308 307 306 305 304 306 303 304 305 305 305
304 299 295 299 306 307 303 299 298 292 293 296 296 296 311 313 314 316 316 318 318 318 318 318 316 316 315 313 313 311 310 309 306 307 307 305 304 305 304 305 304 305 304 303
304 296 293 297 301 304 300 302 301 299 300 296 294 296 310 313 311 314 316 318 318 319 318 317 316 315 314 312 311 311 308 306 305 305 305 304 305 306 305 304 304 304 303 303
311 301 297 293 297 302 299 302 301 299 293 294 297 300 306 310 312 315 317 318 320 321 319 317 315 314 313 313 312 309 307 305 304 303 304 304 304 304 305 305 302 302 303 304
306 298 303 302 305 305 304 303 302 298 301 296 299 302 308 312 312 317 316 317 320 320 318 317 316 313 313 312 310 309 307 304 303 305 303 303 304 305 304 304 304 304 304 305
307 297 303 301 305 303 301 304 305 303 304 302 304 302 313 315 315 316 316 317 318 320 318 318 317 315 314 312 309 309 306 305 304 303 304 305 305 305 303 304 304 304 304 303
303 300 299 294 302 302 297 302 304 305 306 303 299 306 313 312 315 314 313 316 319 319 319 319 317 316 314 311 310 306 305 303 303 304 306 307 304 304 304 304 304 303 302 302
301 300 300 294 297 291 300 308 309 307 308 309 312 314 315 314 313 314 317 318 320 320 319 319 318 315 311 310 307 305 304 303 303 304 306 305 304 304 303 302 303 301 302 302
308 304 299 293 295 298 303 306 305 303 303 312 311 315 315 315 315 316 322 322 320 319 319 318 314 312 310 307 305 303 300 302 305 306 304 304 304 303 302 301 300 300 301 301
308 308 304 296 293 291 301 312 315 310 301 312 314 313 313 313 306 310 318 320 319 319 316 313 313 310 306 304 302 300 302 304 303 303 304 304 304 303 301 301 300 301 300 301
301 303 299 299 295 299 309 313 314 298 299 315 313 313 312 310 314 317 320 319 318 316 314 312 310 306 304 303 302 303 301 300 303 304 304 304 304 302 300 300 299 300 301 300
300 297 295 297 294 293 314 310 303 307 315 318 318 319 316 317 318 318 317 316 314 313 312 310 306 303 303 304 302 301 299 302 304 303 304 304 303 304 304 300 299 302 301 300
300 303 299 300 299 311 315 311 314 315 317 318 318 319 318 317 316 316 315 313 312 311 310 307 304 302 302 302 302 300 302 304 304 304 303 303 302 303 299 298 300 298 298 296
307 311 303 307 312 312 315 316 318 317 319 319 320 319 319 316 316 315 313 311 311 309 307 306 304 301 300 302 305 305 305 305 305 303 302 302 300 299 299 301 301 299 297 295
307 309 304 308 312 314 315 315 313 318 320 319 320 320 318 316 315 314 312 311 309 308 307 305 302 302 302 302 305 305 305 305 303 302 303 300 298 297 298 299 296 296 292 295
306 305 304 304 311 312 314 315 316 316 318 319 319 318 318 317 315 314 312 311 310 307 305 304 302 303 304 307 305 305 306 303 303 301 301 299 298 297 298 296 297 294 295 295
Wind_Speed
7 3 8 11 12 15 12 11 14 12 5 8 9 7 10 9 4 6 18 19 19 21 14 15 19 19 20 7 7 17 12 6 7 3 4 4 4 3 5 5 6 5 5 4
6 11 11 14 15 15 16 9 10 9 11 4 9 7 3 5 6 7 18 15 17 14 12 10 18 22 19 5 8 6 8 8 4 3 1 3 4 4 4 3 3 4 4 3
11 11 16 17 16 13 10 2 8 8 13 6 4 2 3 10 4 17 16 16 12 18 16 12 9 8 6 8 1 2 5 6 4 5 4 4 5 2 3 3 2 2 5 1
9 18 17 15 13 10 5 3 8 12 7 4 3 6 6 9 10 14 16 19 17 19 15 13 11 8 9 6 3 6 7 8 6 5 6 7 4 3 2 2 2 3 3 4
14 14 11 16 10 9 7 5 5 8 9 4 12 3 9 5 9 11 16 22 18 18 18 17 13 14 13 9 7 4 7 8 8 10 8 7 6 4 2 3 4 4 3 3
12 11 15 18 11 9 4 5 7 4 3 4 10 3 10 7 10 9 15 20 19 18 17 15 11 12 14 8 6 6 7 8 9 9 8 8 7 5 4 4 4 4 3 5
15 17 14 11 8 5 5 1 3 5 4 9 7 6 15 8 15 18 19 18 18 17 16 15 13 11 12 9 8 7 8 8 7 8 7 6 5 6 6 5 4 6 4 3
11 13 17 12 11 8 8 10 8 7 6 6 8 6 11 11 14 14 15 16 17 16 14 14 14 13 13 11 10 9 8 8 7 7 6 6 7 4 4 5 4 3 3 3
5 18 15 15 6 11 9 6 10 4 6 3 5 4 6 14 14 14 13 14 13 14 11 12 10 12 12 11 10 9 9 8 7 6 6 5 5 6 5 5 4 3 4 4
14 12 17 11 12 10 12 7 3 1 5 5 7 4 5 10 11 11 11 10 9 11 13 12 11 10 8 9 8 9 8 8 7 6 6 5 5 6 5 5 5 4 4 5
15 8 23 11 6 15 4 5 3 5 7 7 3 6 9 14 15 15 13 13 16 13 14 12 11 9 9 8 9 8 8 8 7 7 5 6 4 4 4 3 2 2 3 5
12 10 9 17 20 10 11 12 10 7 6 3 7 6 1 13 16 19 19 18 15 15 13 12 11 9 7 8 7 7 7 8 7 6 6 4 2 1 0 1 2 4 4 5
11 6 7 10 9 6 9 8 7 5 5 7 5 7 6 5 3 5 14 13 11 10 13 12 11 8 9 7 7 7 7 7 7 6 4 2 1 3 3 2 4 2 3 5
17 8 14 13 11 5 3 6 7 8 4 6 7 6 3 4 13 15 21 19 17 12 5 8 9 8 9 8 7 8 7 7 5 1 3 2 2 1 3 2 3 3 5 4
8 8 8 12 13 13 8 9 11 9 8 8 10 9 9 10 16 18 22 18 19 19 14 12 10 9 9 8 8 8 7 6 1 3 2 1 4 4 4 4 5 6 4 4
8 4 7 8 13 18 15 15 11 9 7 6 9 6 7 6 17 17 20 19 18 18 19 15 13 13 11 10 9 8 7 4 3 2 3 5 4 3 4 4 5 5 5 4
6 3 5 7 7 8 14 17 16 9 9 7 9 6 9 7 7 13 15 18 16 14 17 14 14 12 9 8 11 8 6 4 2 3 5 5 3 2 1 3 5 4 3 3
13 7 2 6 4 13 6 9 10 12 15 7 16 11 8 9 7 9 5 18 13 16 14 13 11 10 10 9 9 8 6 3 3 5 6 2 3 3 4 4 2 3 3 4
9 8 5 6 8 7 12 11 6 3 5 18 21 22 17 13 15 11 14 15 14 12 9 11 13 13 10 10 8 7 4 3 4 5 4 4 4 3 3 4 5 4 4 5
8 7 7 2 9 16 1 3 7 3 4 11 23 21 20 11 8 3 11 18 16 15 15 14 13 12 11 7 8 6 4 4 1 5 3 3 4 2 4 4 3 4 4 6
4 4 8 5 7 5 2 2 5 8 9 6 9 16 13 9 10 12 15 14 15 15 16 14 12 11 8 7 6 3 3 4 1 2 3 4 3 3 4 3 3 4 7 5
8 7 5 4 3 7 1 4 6 7 11 19 16 15 8 18 19 17 16 15 15 16 14 12 11 8 7 6 4 4 4 2 0 1 4 3 4 4 4 4 5 7 5 3
5 9 10 10 11 9 11 5 7 7 19 19 24 22 13 19 18 16 14 14 12 11 11 11 10 8 5 4 6 4 4 3 2 4 4 4 4 4 5 5 7 5 4 2
9 5 6 8 8 12 10 7 9 6 13 21 22 20 20 20 17 15 15 12 9 9 11 10 9 8 5 3 3 4 5 3 3 4 5 5 4 5 7 5 5 4 3 3
3 4 6 5 13 10 6 5 9 16 19 20 20 22 20 19 16 16 13 10 10 9 7 9 8 7 7 6 5 4 5 3 3 4 5 4 4 6 6 6 2 1 1 3
3 3 5 2 7 5 6 4 6 17 13 16 20 19 18 19 17 15 11 11 9 9 7 7 8 8 7 6 6 5 5 4 1 2 3 4 4 5 4 4 5 5 6 5
Wind_Direction
246 180 232 225 234 241 267 277 277 281 303 140 195 209 247 269 227 169 90 97 105 104 120 119 123 123 168 232 2 325 103 90 87 39 78 71 83 88 75 67 67 53 65 45
257 225 233 241 245 245 256 280 288 307 338 90 200 224 225 277 292 135 113 108 121 113 127 122 132 151 189 139 70 343 45 87 63 83 69 113 100 84 84 80 77 100 93 68
215 244 222 245 262 267 265 285 310 292 313 325 138 309 286 294 328 104 106 107 94 114 127 116 129 132 112 119 311 133 80 77 54 86 90 78 70 74 94 125 98 120 139 169
232 237 253 241 245 257 263 299 289 290 325 275 129 256 253 241 252 104 102 115 123 125 125 122 131 152 148 181 149 61 63 75 61 60 71 94 95 107 155 120 159 193 203 226
234 242 249 250 233 230 234 290 268 277 313 309 302 78 266 252 219 116 104 122 122 125 125 122 124 122 116 97 87 86 76 73 62 60 61 70 74 69 70 49 21 2 318 252
245 225 233 241 245 206 266 276 299 315 43 348 255 225 277 268 147 135 120 118 117 114 110 113 117 116 118 116 118 101 88 73 66 66 69 84 88 88 74 44 42 5 360 54
267 263 257 250 225 235 171 171 327 344 341 247 265 269 254 284 150 141 131 120 121 119 122 128 134 133 127 129 116 92 86 88 88 84 78 79 65 70 89 70 43 21 7 18
232 261 253 246 197 177 202 161 162 206 220 261 275 249 271 118 100 100 111 121 124 132 141 145 146 146 142 137 129 131 130 114 105 99 90 76 70 77 71 66 44 36 35 356
235 233 260 229 210 146 248 235 197 194 275 345 240 114 2 118 122 125 127 132 141 143 136 134 124 124 128 134 142 136 120 119 123 130 115 93 79 68 65 53 52 41 20 339
245 276 272 276 227 196 176 199 193 342 247 240 271 237 195 143 143 135 137 141 126 130 120 123 125 124 117 120 124 119 120 124 116 100 92 84 77 72 57 58 57 36 355 338
212 193 268 283 263 203 178 230 216 146 159 191 226 266 189 171 161 162 165 150 145 138 134 129 125 116 120 112 106 115 115 115 98 95 82 72 64 48 75 66 30 10 357 344
206 194 235 257 267 240 172 189 180 145 275 216 159 265 333 158 176 177 173 154 142 137 126 124 118 128 133 125 120 120 116 105 106 100 86 93 48 64 51 104 68 18 19 345
207 222 223 281 302 321 217 197 180 171 144 218 139 264 233 233 167 147 153 126 89 94 120 126 126 142 126 122 116 110 95 100 87 79 118 159 248 50 12 348 70 29 324 306
175 175 198 219 238 230 221 184 206 157 158 210 208 229 192 76 88 89 93 99 89 60 216 149 141 139 128 134 132 114 99 94 98 140 216 177 142 254 273 182 202 262 272 274
142 187 176 220 210 248 260 274 214 211 203 177 229 228 162 165 131 126 123 129 148 165 176 157 152 140 130 133 120 107 103 100 133 281 118 212 247 228 237 253 249 247 259 258
304 215 165 221 218 228 253 270 264 221 260 207 198 204 169 105 120 140 152 159 165 181 156 154 147 139 144 141 131 120 124 127 159 274 247 260 229 226 251 263 269 251 271 271
303 332 140 238 222 217 247 233 252 219 213 218 213 164 130 136 134 149 160 169 166 156 149 149 152 148 146 134 122 125 132 133 199 242 272 264 224 260 339 328 329 354 317 300
274 262 210 216 176 229 239 199 248 259 203 154 95 93 86 98 90 67 72 152 141 133 143 140 133 113 106 109 101 106 110 129 215 257 270 25 40 30 13 3 22 334 308 283
220 229 254 179 207 244 239 256 227 104 250 153 142 148 137 116 81 40 71 96 112 121 119 114 114 114 109 107 114 111 129 212 263 280 55 31 5 350 346 325 304 294 293 295
232 225 215 189 204 229 120 122 262 95 68 6 137 138 139 132 105 139 96 99 97 99 107 111 109 104 102 106 109 129 198 238 77 42 8 330 311 350 325 324 287 265 282 282
155 98 198 225 232 249 108 272 276 117 198 38 150 150 154 137 141 137 109 95 99 105 108 104 101 107 114 115 125 192 93 82 30 338 329 311 340 325 310 260 282 281 289 329
169 154 181 127 64 269 186 54 143 206 134 105 85 97 99 113 113 108 108 108 109 112 108 104 102 103 114 127 137 118 95 231 73 316 291 303 304 295 309 287 295 302 301 246
161 179 174 181 200 273 280 236 167 171 129 125 127 123 132 120 114 116 116 110 113 114 111 110 113 118 131 140 141 129 194 92 359 339 13 1 338 329 315 314 296 302 293 253
6 111 159 139 178 162 229 303 136 167 135 131 131 135 133 127 125 122 112 119 122 118 120 126 124 122 125 141 162 213 130 89 19 22 334 310 336 322 310 310 288 302 320 65
21 307 317 104 145 139 182 185 121 109 124 128 130 133 130 124 124 122 126 129 125 128 123 128 133 141 163 184 216 126 114 77 56 358 340 352 340 325 310 308 303 62 260 150
297 9 36 313 4 286 148 191 152 136 141 139 134 133 132 125 124 131 135 128 132 123 123 116 141 153 178 169 143 125 105 79 9 348 336 335 325 317 312 310 321 30 148 109